Simultaneous Nadir Overpasses (SNOs) Predictions

Prediction of SNOs between TERRA and METOP-C Satellite Orbit:

Table of predicted SNOs for the next 14.0 days since TLE Epoch: 3/13/2021
Index Date (TERRA) Time (TERRA) Lat,Lon (TERRA) SZA (TERRA ) Date (METOP-C) Time (METOP-C) Lat,Lon (METOP-C) SZA (METOP-C ) Distance(km) Time Diff (sec)
1 03/14/2021 10:28:18 -81.28,-110.90 93.97 03/14/2021 10:27:41 -81.29,-110.75 93.97 2.54 37
2 03/14/2021 11:17:44 81.29, 56.84 86.04 03/14/2021 11:18:21 81.29, 56.74 86.04 1.66 37
3 03/17/2021 06:02:31 -81.29, -44.39 95.05 03/17/2021 06:02:03 -81.29, -44.28 95.04 1.93 28
4 03/17/2021 06:51:57 81.29, 123.32 84.96 03/17/2021 06:52:43 81.29, 123.24 84.97 1.34 46
5 03/20/2021 01:36:43 -81.29, 22.08 96.13 03/20/2021 01:36:24 -81.29, 22.18 96.12 1.75 19
6 03/20/2021 02:26:09 81.29,-170.24 83.87 03/20/2021 02:27:04 81.29,-170.27 83.89 0.64 55
7 03/22/2021 21:10:56 -81.29, 88.50 97.21 03/22/2021 21:10:46 -81.29, 88.62 97.20 1.99 10
8 03/22/2021 22:00:22 81.29,-103.84 82.78 03/22/2021 22:01:26 81.29,-103.81 82.82 0.75 64
9 03/25/2021 15:55:43 81.26, -13.14 81.66 03/25/2021 15:54:29 81.28, -13.03 81.65 2.52 74
10 03/25/2021 16:45:09 -81.28, 154.88 98.30 03/25/2021 16:45:08 -81.29, 155.03 98.28 2.68 1



Historial Predications of SNOs between TERRA and METOP-C
